Torna al catalogo

SL-23 R/B

AttivoHEO
NORAD 37835·ROCKET BODY·🇷🇺 Russia

Lanciato Oct 5, 2011 da Baikonur Cosmodrome

Loading…

Prossimi Passaggi (prossime 24 ore)

TLE

AggiornatoSource: Space-Track

Epoca: Sep 13, 2026, 07:11 UTC

1 37835U 11056B   26256.29946707  .00000206  00000-0  00000-0 0  9992
2 37835  19.5302 310.6790 5667139 288.3816  20.0106  1.96795628107401

Traccia SL-23 R/B in tempo reale con AllMySat

Download on the App Store